Time,TemperatureF,DewpointF,PressureIn,WindDirection,WindDirectionDegrees,WindSpeedMPH,WindSpeedGustMPH,Humidity,HourlyPrecipIn,Conditions,Clouds,dailyrainin,SoftwareType,DateUTC
2013-06-30 00:22:00,68.0,59.0,30.01,North,355,0.0,-999.0,73,-99.99,,,-99.99,,2013-06-30 07:22:00,
2013-06-30 00:33:00,68.0,59.0,30.01,North,355,0.0,-999.0,73,-99.99,,,-99.99,,2013-06-30 07:33:00,
2013-06-30 00:44:00,68.0,59.0,30.01,North,355,0.0,-999.0,73,-99.99,,,-99.99,,2013-06-30 07:44:00,
2013-06-30 00:53:00,67.0,59.0,30.01,North,355,0.0,-999.0,75,-99.99,,,-99.99,,2013-06-30 07:53:00,
2013-06-30 01:02:00,68.0,59.0,30.01,North,355,0.0,-999.0,74,-99.99,,,-99.99,,2013-06-30 08:02:00,
2013-06-30 01:11:00,67.0,59.0,30.01,North,355,0.0,-999.0,76,-99.99,,,-99.99,,2013-06-30 08:11:00,
2013-06-30 01:22:00,67.0,60.0,30.01,North,355,0.0,-999.0,77,-99.99,,,-99.99,,2013-06-30 08:22:00,
2013-06-30 01:33:00,67.0,60.0,30.01,NNW,333,0.0,-999.0,77,-99.99,,,-99.99,,2013-06-30 08:33:00,
2013-06-30 01:42:00,67.0,59.0,30.01,NNW,333,0.0,-999.0,76,-99.99,,,-99.99,,2013-06-30 08:42:00,
2013-06-30 01:53:00,67.0,60.0,30.01,NNW,333,0.0,-999.0,77,-99.99,,,-99.99,,2013-06-30 08:53:00,
2013-06-30 02:01:00,67.0,60.0,30.01,NNW,333,0.0,-999.0,77,-99.99,,,-99.99,,2013-06-30 09:01:00,
2013-06-30 02:11:00,67.0,60.0,30.01,NNW,333,0.0,-999.0,78,-99.99,,,-99.99,,2013-06-30 09:11:00,
2013-06-30 02:23:00,66.0,60.0,30.01,NNW,333,0.0,-999.0,80,-99.99,,,-99.99,,2013-06-30 09:23:00,
2013-06-30 02:33:00,66.0,60.0,30.01,NNW,333,0.0,-999.0,80,-99.99,,,-99.99,,2013-06-30 09:33:00,
2013-06-30 02:43:00,65.0,59.0,30.01,NNW,333,0.0,-999.0,81,-99.99,,,-99.99,,2013-06-30 09:43:00,
2013-06-30 02:52:00,65.0,60.0,30.01,NNW,333,0.0,-999.0,83,-99.99,,,-99.99,,2013-06-30 09:52:00,
2013-06-30 03:02:00,65.0,60.0,30.00,NNW,333,0.0,-999.0,83,-99.99,,,-99.99,,2013-06-30 10:02:00,
2013-06-30 03:11:00,65.0,60.0,30.00,NNW,333,0.0,-999.0,84,-99.99,,,-99.99,,2013-06-30 10:11:00,
2013-06-30 03:22:00,64.0,59.0,30.00,NNW,333,0.0,-999.0,85,-99.99,,,-99.99,,2013-06-30 10:22:00,
2013-06-30 03:33:00,64.0,59.0,30.00,NNW,333,0.0,-999.0,85,-99.99,,,-99.99,,2013-06-30 10:33:00,
2013-06-30 03:42:00,64.0,60.0,29.99,NNW,333,0.0,-999.0,86,-99.99,,,-99.99,,2013-06-30 10:42:00,
2013-06-30 03:53:00,64.0,60.0,29.99,NNW,333,0.0,-999.0,87,-99.99,,,-99.99,,2013-06-30 10:53:00,
2013-06-30 04:02:00,64.0,60.0,29.99,NNW,333,0.0,-999.0,86,-99.99,,,-99.99,,2013-06-30 11:02:00,
2013-06-30 04:11:00,64.0,60.0,30.00,NNW,333,0.0,-999.0,87,-99.99,,,-99.99,,2013-06-30 11:11:00,
2013-06-30 04:22:00,64.0,60.0,29.99,NNW,333,0.0,-999.0,87,-99.99,,,-99.99,,2013-06-30 11:22:00,
2013-06-30 04:33:00,64.0,60.0,30.00,NNW,333,0.0,-999.0,88,-99.99,,,-99.99,,2013-06-30 11:33:00,
2013-06-30 04:43:00,64.0,60.0,29.99,NNW,333,0.0,-999.0,88,-99.99,,,-99.99,,2013-06-30 11:43:00,
2013-06-30 04:53:00,64.0,60.0,29.99,NNW,333,0.0,-999.0,88,-99.99,,,-99.99,,2013-06-30 11:53:00,
2013-06-30 05:01:00,63.0,60.0,29.99,NNW,333,0.0,-999.0,89,-99.99,,,-99.99,,2013-06-30 12:01:00,
2013-06-30 05:11:00,63.0,60.0,29.99,NNW,333,0.0,-999.0,90,-99.99,,,-99.99,,2013-06-30 12:11:00,
2013-06-30 05:24:00,63.0,60.0,29.99,NNW,333,0.0,-999.0,90,-99.99,,,-99.99,,2013-06-30 12:24:00,
2013-06-30 05:33:00,63.0,60.0,29.99,NNW,333,0.0,-999.0,90,-99.99,,,-99.99,,2013-06-30 12:33:00,
2013-06-30 05:43:00,63.0,60.0,29.99,NNW,333,0.0,-999.0,90,-99.99,,,-99.99,,2013-06-30 12:43:00,
2013-06-30 05:52:00,63.0,60.0,29.99,NNW,333,0.0,-999.0,89,-99.99,,,-99.99,,2013-06-30 12:52:00,
2013-06-30 06:01:00,63.0,60.0,29.99,NNW,333,0.0,-999.0,89,-99.99,,,-99.99,,2013-06-30 13:01:00,
2013-06-30 06:12:00,64.0,60.0,29.99,NNW,333,0.0,-999.0,88,-99.99,,,-99.99,,2013-06-30 13:12:00,
2013-06-30 06:22:00,64.0,60.0,29.99,NNW,333,0.0,-999.0,88,-99.99,,,-99.99,,2013-06-30 13:22:00,
2013-06-30 06:33:00,64.0,61.0,29.99,NNW,339,0.0,-999.0,89,-99.99,,,-99.99,,2013-06-30 13:33:00,
2013-06-30 06:43:00,64.0,60.0,29.99,NNW,339,0.0,-999.0,87,-99.99,,,-99.99,,2013-06-30 13:43:00,
2013-06-30 06:53:00,65.0,60.0,29.99,NNE,32,0.0,-999.0,84,-99.99,,,-99.99,,2013-06-30 13:53:00,
2013-06-30 07:02:00,65.0,59.0,29.99,North,11,1.0,-999.0,82,-99.99,,,-99.99,,2013-06-30 14:02:00,
2013-06-30 07:11:00,66.0,60.0,29.99,NNE,29,1.0,-999.0,82,-99.99,,,-99.99,,2013-06-30 14:11:00,
2013-06-30 07:22:00,66.0,61.0,29.99,NNW,336,0.0,-999.0,83,-99.99,,,-99.99,,2013-06-30 14:22:00,
2013-06-30 07:33:00,66.0,60.0,29.99,NW,313,1.0,-999.0,82,-99.99,,,-99.99,,2013-06-30 14:33:00,
2013-06-30 07:44:00,66.0,60.0,29.99,NNE,20,1.0,-999.0,82,-99.99,,,-99.99,,2013-06-30 14:44:00,
2013-06-30 07:52:00,67.0,61.0,29.99,NNW,346,1.0,-999.0,80,-99.99,,,-99.99,,2013-06-30 14:52:00,
2013-06-30 08:02:00,67.0,61.0,29.99,NNW,331,2.0,-999.0,80,-99.99,,,-99.99,,2013-06-30 15:02:00,
2013-06-30 08:12:00,67.0,60.0,29.99,North,5,1.0,-999.0,79,-99.99,,,-99.99,,2013-06-30 15:12:00,
2013-06-30 08:22:00,68.0,62.0,29.99,NNW,331,1.0,-999.0,80,-99.99,,,-99.99,,2013-06-30 15:22:00,
2013-06-30 08:34:00,69.0,62.0,29.99,NNW,347,1.0,-999.0,79,-99.99,,,-99.99,,2013-06-30 15:34:00,
2013-06-30 08:44:00,69.0,62.0,29.99,NE,34,0.0,-999.0,79,-99.99,,,-99.99,,2013-06-30 15:44:00,
2013-06-30 08:52:00,69.0,62.0,29.99,NNE,26,0.0,-999.0,79,-99.99,,,-99.99,,2013-06-30 15:52:00,
2013-06-30 09:01:00,69.0,62.0,29.99,North,5,1.0,-999.0,79,-99.99,,,-99.99,,2013-06-30 16:01:00,
2013-06-30 09:11:00,70.0,63.0,29.98,NNW,331,1.0,-999.0,78,-99.99,,,-99.99,,2013-06-30 16:11:00,
2013-06-30 09:21:00,71.0,63.0,29.98,NNE,33,1.0,-999.0,76,-99.99,,,-99.99,,2013-06-30 16:21:00,
2013-06-30 09:34:00,71.0,63.0,29.98,NNE,28,1.0,-999.0,77,-99.99,,,-99.99,,2013-06-30 16:34:00,
2013-06-30 09:43:00,72.0,64.0,29.98,NNE,18,1.0,-999.0,75,-99.99,,,-99.99,,2013-06-30 16:43:00,
2013-06-30 09:53:00,72.0,63.0,29.98,NNE,30,1.0,-999.0,74,-99.99,,,-99.99,,2013-06-30 16:53:00,
2013-06-30 10:01:00,73.0,64.0,29.98,NNE,15,2.0,-999.0,73,-99.99,,,-99.99,,2013-06-30 17:01:00,
2013-06-30 10:11:00,74.0,65.0,29.97,North,355,1.0,-999.0,73,-99.99,,,-99.99,,2013-06-30 17:11:00,
2013-06-30 10:23:00,74.0,64.0,29.97,NE,34,1.0,-999.0,71,-99.99,,,-99.99,,2013-06-30 17:23:00,
2013-06-30 10:33:00,74.0,64.0,29.96,North,5,2.0,-999.0,72,-99.99,,,-99.99,,2013-06-30 17:33:00,
2013-06-30 10:43:00,75.0,65.0,29.96,NW,315,2.0,-999.0,70,-99.99,,,-99.99,,2013-06-30 17:43:00,
2013-06-30 10:52:00,76.0,65.0,29.96,ENE,58,1.0,-999.0,70,-99.99,,,-99.99,,2013-06-30 17:52:00,
2013-06-30 11:01:00,76.0,65.0,29.96,NNE,12,1.0,-999.0,69,-99.99,,,-99.99,,2013-06-30 18:01:00,
2013-06-30 11:12:00,77.0,66.0,29.95,NNE,31,1.0,-999.0,68,-99.99,,,-99.99,,2013-06-30 18:12:00,
2013-06-30 11:22:00,78.0,66.0,29.95,NNW,336,1.0,-999.0,66,-99.99,,,-99.99,,2013-06-30 18:22:00,
2013-06-30 11:33:00,79.0,67.0,29.95,North,349,0.0,-999.0,66,-99.99,,,-99.99,,2013-06-30 18:33:00,
2013-06-30 11:43:00,80.0,67.0,29.95,NNE,32,0.0,-999.0,64,-99.99,,,-99.99,,2013-06-30 18:43:00,
2013-06-30 11:53:00,81.0,67.0,29.94,West,278,0.0,-999.0,63,-99.99,,,-99.99,,2013-06-30 18:53:00,
2013-06-30 12:01:00,82.0,69.0,29.94,West,270,0.0,-999.0,64,-99.99,,,-99.99,,2013-06-30 19:01:00,
2013-06-30 12:11:00,82.0,68.0,29.94,West,265,0.0,-999.0,63,-99.99,,,-99.99,,2013-06-30 19:11:00,
2013-06-30 12:22:00,83.0,66.0,29.93,WSW,243,0.0,-999.0,56,-99.99,,,-99.99,,2013-06-30 19:22:00,
2013-06-30 12:33:00,83.0,67.0,29.93,ESE,111,0.0,-999.0,58,-99.99,,,-99.99,,2013-06-30 19:33:00,
2013-06-30 12:43:00,83.0,66.0,29.93,ESE,120,0.0,-999.0,57,-99.99,,,-99.99,,2013-06-30 19:43:00,
2013-06-30 12:53:00,84.0,67.0,29.93,East,101,0.0,-999.0,57,-99.99,,,-99.99,,2013-06-30 19:53:00,
2013-06-30 13:01:00,85.0,67.0,29.92,ENE,65,0.0,-999.0,55,-99.99,,,-99.99,,2013-06-30 20:01:00,
2013-06-30 13:11:00,85.0,66.0,29.92,ENE,65,0.0,-999.0,54,-99.99,,,-99.99,,2013-06-30 20:11:00,
2013-06-30 13:21:00,84.0,67.0,29.91,NNW,340,1.0,-999.0,56,-99.99,,,-99.99,,2013-06-30 20:21:00,
2013-06-30 13:34:00,85.0,67.0,29.91,NE,51,1.0,-999.0,55,-99.99,,,-99.99,,2013-06-30 20:34:00,
2013-06-30 13:42:00,85.0,66.0,29.91,North,355,1.0,-999.0,54,-99.99,,,-99.99,,2013-06-30 20:42:00,
2013-06-30 13:52:00,84.0,66.0,29.90,NE,37,2.0,-999.0,54,-99.99,,,-99.99,,2013-06-30 20:52:00,
2013-06-30 14:01:00,86.0,66.0,29.90,NE,34,2.0,-999.0,52,-99.99,,,-99.99,,2013-06-30 21:01:00,
2013-06-30 14:11:00,86.0,66.0,29.90,NNE,14,2.0,-999.0,52,-99.99,,,-99.99,,2013-06-30 21:11:00,
2013-06-30 14:22:00,87.0,67.0,29.89,NE,51,1.0,-999.0,51,-99.99,,,-99.99,,2013-06-30 21:22:00,
2013-06-30 14:33:00,87.0,67.0,29.89,NE,41,0.0,-999.0,51,-99.99,,,-99.99,,2013-06-30 21:33:00,
2013-06-30 14:42:00,88.0,68.0,29.89,ENE,74,0.0,-999.0,52,-99.99,,,-99.99,,2013-06-30 21:42:00,
2013-06-30 14:53:00,88.0,69.0,29.89,East,90,0.0,-999.0,53,-99.99,,,-99.99,,2013-06-30 21:53:00,
2013-06-30 15:01:00,88.0,69.0,29.88,NNW,342,0.0,-999.0,53,-99.99,,,-99.99,,2013-06-30 22:01:00,
2013-06-30 15:11:00,88.0,69.0,29.88,ENE,68,0.0,-999.0,54,-99.99,,,-99.99,,2013-06-30 22:11:00,
2013-06-30 15:22:00,86.0,67.0,29.88,NE,49,1.0,-999.0,54,-99.99,,,-99.99,,2013-06-30 22:22:00,
2013-06-30 15:34:00,87.0,67.0,29.88,North,351,1.0,-999.0,52,-99.99,,,-99.99,,2013-06-30 22:34:00,
2013-06-30 15:43:00,87.0,68.0,29.87,NNE,26,0.0,-999.0,53,-99.99,,,-99.99,,2013-06-30 22:43:00,
2013-06-30 15:52:00,87.0,68.0,29.87,North,350,0.0,-999.0,54,-99.99,,,-99.99,,2013-06-30 22:52:00,
2013-06-30 16:01:00,87.0,68.0,29.87,NNE,19,0.0,-999.0,53,-99.99,,,-99.99,,2013-06-30 23:01:00,
2013-06-30 16:11:00,87.0,68.0,29.87,NNE,19,0.0,-999.0,53,-99.99,,,-99.99,,2013-06-30 23:11:00,
2013-06-30 16:22:00,87.0,67.0,29.87,NNE,17,0.0,-999.0,52,-99.99,,,-99.99,,2013-06-30 23:22:00,
2013-06-30 16:33:00,88.0,67.0,29.86,NNE,23,1.0,-999.0,50,-99.99,,,-99.99,,2013-06-30 23:33:00,
2013-06-30 16:43:00,88.0,66.0,29.86,ENE,57,1.0,-999.0,48,-99.99,,,-99.99,,2013-06-30 23:43:00,
2013-06-30 16:53:00,88.0,66.0,29.86,NE,55,2.0,-999.0,49,-99.99,,,-99.99,,2013-06-30 23:53:00,
2013-06-30 17:01:00,87.0,65.0,29.86,North,5,2.0,-999.0,48,-99.99,,,-99.99,,2013-07-01 00:01:00,
2013-06-30 17:11:00,88.0,66.0,29.85,NNW,348,2.0,-999.0,48,-99.99,,,-99.99,,2013-07-01 00:11:00,
2013-06-30 17:22:00,87.0,63.0,29.86,NE,46,1.0,-999.0,45,-99.99,,,-99.99,,2013-07-01 00:22:00,
2013-06-30 17:33:00,87.0,63.0,29.85,NNE,33,1.0,-999.0,45,-99.99,,,-99.99,,2013-07-01 00:33:00,
2013-06-30 17:42:00,88.0,64.0,29.85,NW,323,2.0,-999.0,45,-99.99,,,-99.99,,2013-07-01 00:42:00,
2013-06-30 17:52:00,88.0,63.0,29.85,NE,52,2.0,-999.0,43,-99.99,,,-99.99,,2013-07-01 00:52:00,
2013-06-30 18:01:00,88.0,63.0,29.85,NNE,13,2.0,-999.0,44,-99.99,,,-99.99,,2013-07-01 01:01:00,
2013-06-30 18:11:00,88.0,63.0,29.85,NNE,13,2.0,-999.0,44,-99.99,,,-99.99,,2013-07-01 01:11:00,
2013-06-30 18:22:00,87.0,64.0,29.85,NNE,23,1.0,-999.0,46,-99.99,,,-99.99,,2013-07-01 01:22:00,
2013-06-30 18:33:00,87.0,65.0,29.85,NE,36,2.0,-999.0,48,-99.99,,,-99.99,,2013-07-01 01:33:00,
2013-06-30 18:42:00,87.0,66.0,29.85,NNE,13,2.0,-999.0,50,-99.99,,,-99.99,,2013-07-01 01:42:00,
2013-06-30 18:52:00,86.0,66.0,29.84,NE,37,2.0,-999.0,52,-99.99,,,-99.99,,2013-07-01 01:52:00,
2013-06-30 19:02:00,86.0,67.0,29.84,NNW,335,1.0,-999.0,54,-99.99,,,-99.99,,2013-07-01 02:02:00,
2013-06-30 19:11:00,86.0,67.0,29.84,NNW,335,1.0,-999.0,54,-99.99,,,-99.99,,2013-07-01 02:11:00,
2013-06-30 19:22:00,84.0,68.0,29.84,NNE,30,1.0,-999.0,58,-99.99,,,-99.99,,2013-07-01 02:22:00,
2013-06-30 19:43:00,83.0,69.0,29.84,NE,47,1.0,-999.0,63,-99.99,,,-99.99,,2013-07-01 02:43:00,
2013-06-30 19:54:00,82.0,68.0,29.84,NE,46,1.0,-999.0,63,-99.99,,,-99.99,,2013-07-01 02:54:00,
2013-06-30 20:01:00,82.0,69.0,29.84,ENE,59,1.0,-999.0,64,-99.99,,,-99.99,,2013-07-01 03:01:00,
2013-06-30 20:11:00,81.0,68.0,29.84,ENE,60,0.0,-999.0,64,-99.99,,,-99.99,,2013-07-01 03:11:00,
2013-06-30 20:23:00,81.0,68.0,29.84,ENE,60,0.0,-999.0,65,-99.99,,,-99.99,,2013-07-01 03:23:00,
2013-06-30 20:33:00,81.0,68.0,29.84,NNW,331,0.0,-999.0,64,-99.99,,,-99.99,,2013-07-01 03:33:00,
2013-06-30 20:43:00,81.0,68.0,29.84,North,360,0.0,-999.0,64,-99.99,,,-99.99,,2013-07-01 03:43:00,
2013-06-30 20:52:00,81.0,68.0,29.84,NE,40,0.0,-999.0,65,-99.99,,,-99.99,,2013-07-01 03:52:00,
2013-06-30 21:01:00,80.0,68.0,29.84,NE,40,0.0,-999.0,66,-99.99,,,-99.99,,2013-07-01 04:01:00,
2013-06-30 21:11:00,80.0,68.0,29.84,NNE,30,0.0,-999.0,67,-99.99,,,-99.99,,2013-07-01 04:11:00,
2013-06-30 21:22:00,80.0,68.0,29.84,NNE,30,0.0,-999.0,67,-99.99,,,-99.99,,2013-07-01 04:22:00,
2013-06-30 21:32:00,80.0,68.0,29.84,NNE,30,0.0,-999.0,67,-99.99,,,-99.99,,2013-07-01 04:32:00,
2013-06-30 21:42:00,80.0,68.0,29.84,NNE,30,0.0,-999.0,67,-99.99,,,-99.99,,2013-07-01 04:42:00,
2013-06-30 21:52:00,79.0,68.0,29.85,North,355,0.0,-999.0,68,-99.99,,,-99.99,,2013-07-01 04:52:00,
2013-06-30 22:01:00,78.0,67.0,29.86,North,5,0.0,-999.0,69,-99.99,,,-99.99,,2013-07-01 05:01:00,
2013-06-30 22:11:00,78.0,67.0,29.87,East,82,0.0,-999.0,70,-99.99,,,-99.99,,2013-07-01 05:11:00,
2013-06-30 22:22:00,78.0,67.0,29.87,East,82,0.0,-999.0,69,-99.99,,,-99.99,,2013-07-01 05:22:00,
2013-06-30 22:32:00,77.0,66.0,29.87,East,82,0.0,-999.0,69,-99.99,,,-99.99,,2013-07-01 05:32:00,
2013-06-30 22:42:00,77.0,66.0,29.87,NW,323,0.0,-999.0,70,-99.99,,,-99.99,,2013-07-01 05:42:00,
2013-06-30 22:52:00,77.0,68.0,29.88,NE,49,0.0,-999.0,73,-99.99,,,-99.99,,2013-07-01 05:52:00,
2013-06-30 23:02:00,76.0,68.0,29.88,ENE,57,0.0,-999.0,77,-99.99,,,-99.99,,2013-07-01 06:02:00,
2013-06-30 23:12:00,75.0,68.0,29.88,NNE,33,0.0,-999.0,78,-99.99,,,-99.99,,2013-07-01 06:12:00,
2013-06-30 23:23:00,75.0,67.0,29.88,NE,42,0.0,-999.0,75,-99.99,,,-99.99,,2013-07-01 06:23:00,
2013-06-30 23:33:00,75.0,65.0,29.89,NE,34,0.0,-999.0,71,-99.99,,,-99.99,,2013-07-01 06:33:00,
2013-06-30 23:43:00,74.0,64.0,29.89,NE,36,0.0,-999.0,70,-99.99,,,-99.99,,2013-07-01 06:43:00,
2013-06-30 23:53:00,74.0,64.0,29.89,NE,36,0.0,-999.0,70,-99.99,,,-99.99,,2013-07-01 06:53:00,